| time (UTC) | temp F | wind direction | speed MPH | gust MPH | rain 1hr in | rain 24hr in | rain mn in | humidity % | barometer mb |
| 20260507023016 | 69 | 315 | 7.0 | 16.0 | 0.00 | 0.00 | 0.00 | 62 | 1016.1 |
| 20260507020017 | 71 | 315 | 8.0 | 18.0 | 0.00 | 0.00 | 0.00 | 58 | 1015.9 |
| 20260507013036 | 72 | 315 | 9.0 | 17.0 | 0.00 | 0.00 | 0.00 | 56 | 1015.6 |
| 20260507010016 | 73 | 315 | 10.0 | 19.0 | 0.00 | 0.00 | 0.00 | 54 | 1015.4 |
| 20260507003016 | 74 | 315 | 10.0 | 18.0 | 0.00 | 0.00 | 0.00 | 50 | 1015.4 |
| 20260507000036 | 75 | 315 | 10.0 | 20.0 | 0.00 | 0.00 | 0.00 | 49 | 1015.3 |
| 20260506233016 | 75 | 293 | 9.0 | 18.0 | 0.00 | 0.00 | 0.00 | 48 | 1015.3 |
| 20260506230016 | 76 | 315 | 8.0 | 18.0 | 0.00 | 0.00 | 0.00 | 47 | 1015.5 |
| 20260506223016 | 76 | 293 | 9.0 | 18.0 | 0.00 | 0.00 | 0.00 | 50 | 1015.6 |
| 20260506220016 | 76 | 293 | 7.0 | 15.0 | 0.00 | 0.00 | 0.00 | 48 | 1016.0 |
| 20260506213016 | 76 | 270 | 6.0 | 13.0 | 0.00 | 0.00 | 0.00 | 47 | 1016.4 |
| 20260506210015 | 76 | 293 | 5.0 | 13.0 | 0.00 | 0.00 | 0.00 | 47 | 1016.8 |
| 20260506203015 | 75 | 315 | 3.0 | 11.0 | 0.00 | 0.00 | 0.00 | 47 | 1017.1 |
| 20260506200015 | 74 | 315 | 3.0 | 10.0 | 0.00 | 0.00 | 0.00 | 47 | 1017.2 |
| 20260506193017 | 73 | 338 | 3.0 | 11.0 | 0.00 | 0.00 | 0.00 | 50 | 1017.7 |
| 20260506190019 | 72 | 45 | 3.0 | 10.0 | 0.00 | 0.00 | 0.00 | 51 | 1018.0 |
| 20260506183017 | 70 | 338 | 3.0 | 8.0 | 0.00 | 0.00 | 0.00 | 52 | 1018.6 |
| 20260506180037 | 70 | 315 | 1.0 | 6.0 | 0.00 | 0.00 | 0.00 | 54 | 1018.6 |
| 20260506173017 | 68 | 338 | 1.0 | 6.0 | 0.00 | 0.00 | 0.00 | 56 | 1018.9 |
| 20260506170017 | 65 | 45 | 1.0 | 5.0 | 0.00 | 0.00 | 0.00 | 60 | 1019.0 |
| 20260506163017 | 65 | 338 | 1.0 | 4.0 | 0.00 | 0.00 | 0.00 | 63 | 1018.9 |
| 20260506160017 | 62 | 0.0 | 3.0 | 0.00 | 0.00 | 0.00 | 69 | 1019.0 | |
| 20260506153037 | 60 | 0.0 | 3.0 | 0.00 | 0.00 | 0.00 | 72 | 1019.1 | |
| 20260506150037 | 60 | 0.0 | 2.0 | 0.00 | 0.00 | 0.00 | 69 | 1019.0 | |
| 20260506143017 | 58 | 0.0 | 1.0 | 0.00 | 0.00 | 0.00 | 75 | 1019.1 | |
| 20260506140037 | 54 | 0.0 | 1.0 | 0.00 | 0.00 | 0.00 | 83 | 1019.0 | |
| 20260506133017 | 50 | 0.0 | 0.0 | 0.00 | 0.00 | 0.00 | 87 | 1018.5 | |
| 20260506130017 | 49 | 0.0 | 0.0 | 0.00 | 0.00 | 0.00 | 85 | 1018.1 | |
| 20260506123016 | 50 | 0.0 | 2.0 | 0.00 | 0.00 | 0.00 | 85 | 1018.1 | |
| 20260506120017 | 49 | 0.0 | 0.0 | 0.00 | 0.02 | 0.00 | 87 | 1018.0 | |
| 20260506113017 | 50 | 0.0 | 1.0 | 0.00 | 0.03 | 0.00 | 88 | 1017.9 | |
| 20260506110036 | 50 | 0.0 | 0.0 | 0.00 | 0.04 | 0.00 | 89 | 1017.9 | |
| 20260506103037 | 50 | 0.0 | 0.0 | 0.00 | 0.06 | 0.00 | 88 | 1017.9 | |
| 20260506100137 | 51 | 0.0 | 0.0 | 0.00 | 0.06 | 0.00 | 88 | 1017.9 | |
| 20260506093016 | 51 | 0.0 | 0.0 | 0.00 | 0.06 | 0.00 | 87 | 1017.9 | |
| 20260506090016 | 52 | 0.0 | 0.0 | 0.00 | 0.06 | 0.00 | 84 | 1018.0 | |
| 20260506083017 | 53 | 0.0 | 1.0 | 0.00 | 0.06 | 0.00 | 83 | 1018.2 | |
| 20260506073016 | 54 | 0.0 | 1.0 | 0.00 | 0.06 | 0.00 | 79 | 1018.1 | |
| 20260506043036 | 60 | 293 | 2.0 | 5.0 | 0.00 | 0.06 | 0.06 | 69 | 1016.5 |
| 20260506040016 | 60 | 315 | 1.0 | 5.0 | 0.00 | 0.06 | 0.06 | 67 | 1016.3 |
| 20260506033016 | 61 | 293 | 1.0 | 4.0 | 0.00 | 0.06 | 0.06 | 65 | 1015.8 |
| 20260506030016 | 62 | 293 | 2.0 | 7.0 | 0.00 | 0.06 | 0.06 | 62 | 1015.4 |